owner,sensor,date,latitude,longitude,vertical_datum,wind_speed,wind_to_direction,wind_speed_of_gust,qcFlag 
TCOON,ioos:station:TCOON:006:1,2008-02-01T00:00:00Z,27.8217,-97.2040,0.0,3.6,327.0,7.4,'11111222,11111222,11111222' 
TCOON,ioos:station:TCOON:006:1,2008-02-01T04:00:00Z,27.8217,-97.2040,0.0,2.5,346.0,4.1,'11111222,11111222,11111222' 
TCOON,ioos:station:TCOON:006:1,2008-02-01T05:00:00Z,27.8217,-97.2040,0.0,0.6,6.0,2.0,'11111222,11111222,11111222' 
TCOON,ioos:station:TCOON:006:1,2008-02-01T06:00:00Z,27.8217,-97.2040,0.0,0.6,13.0,2.4,'11111222,11111222,11111222' 
TCOON,ioos:station:TCOON:006:1,2008-02-01T07:00:00Z,27.8217,-97.2040,0.0,0.5,18.0,1.5,'11111222,11111222,11111222' 
TCOON,ioos:station:TCOON:006:1,2008-02-01T08:00:00Z,27.8217,-97.2040,0.0,1.5,30.0,2.2,'11111222,11111222,11111222' 
TCOON,ioos:station:TCOON:006:1,2008-02-01T09:00:00Z,27.8217,-97.2040,0.0,1.7,22.0,3.8,'11111222,11111222,11111222' 
TCOON,ioos:station:TCOON:006:1,2008-02-01T10:00:00Z,27.8217,-97.2040,0.0,0.8,13.0,1.7,'11111222,11111222,11111222' 
TCOON,ioos:station:TCOON:006:1,2008-02-01T11:00:00Z,27.8217,-97.2040,0.0,1.1,12.0,3.1,'11111222,11111222,11111222' 
TCOON,ioos:station:TCOON:006:1,2008-02-01T13:00:00Z,27.8217,-97.2040,0.0,1.4,36.0,1.9,'11111222,11111222,11111222' 
TCOON,ioos:station:TCOON:006:1,2008-02-01T14:00:00Z,27.8217,-97.2040,0.0,1.8,36.0,2.6,'11111222,11111222,11111222' 
TCOON,ioos:station:TCOON:006:1,2008-02-01T15:00:00Z,27.8217,-97.2040,0.0,1.3,55.0,2.2,'11111222,11111222,11111222' 
TCOON,ioos:station:TCOON:006:1,2008-02-01T16:00:00Z,27.8217,-97.2040,0.0,2.1,76.0,3.6,'11111222,11111222,11111222' 
TCOON,ioos:station:TCOON:006:1,2008-02-01T17:00:00Z,27.8217,-97.2040,0.0,1.6,126.0,3.5,'11111222,11111222,11111222' 
TCOON,ioos:station:TCOON:006:1,2008-02-01T18:00:00Z,27.8217,-97.2040,0.0,2.7,111.0,3.9,'11111222,11111222,11111222' 
TCOON,ioos:station:TCOON:006:1,2008-02-01T19:00:00Z,27.8217,-97.2040,0.0,3.4,76.0,4.4,'11111222,11111222,11111222' 
TCOON,ioos:station:TCOON:006:1,2008-02-01T20:00:00Z,27.8217,-97.2040,0.0,3.6,85.0,5.2,'11111222,11111222,11111222' 
TCOON,ioos:station:TCOON:006:1,2008-02-01T21:00:00Z,27.8217,-97.2040,0.0,3.5,93.0,5.5,'11111222,11111222,11111222' 
TCOON,ioos:station:TCOON:006:1,2008-02-01T22:00:00Z,27.8217,-97.2040,0.0,3.4,107.0,5.4,'11111222,11111222,11111222' 
TCOON,ioos:station:TCOON:006:1,2008-02-01T23:00:00Z,27.8217,-97.2040,0.0,3.0,118.0,3.4,'11111222,11111222,11111222' 
TCOON,ioos:station:TCOON:006:1,2008-02-02T00:00:00Z,27.8217,-97.2040,0.0,1.4,120.0,2.4,'11111222,11111222,11111222' 
TCOON,ioos:station:TCOON:006:1,2008-02-02T01:00:00Z,27.8217,-97.2040,0.0,1.3,142.0,1.5,'11111222,11111222,11111222' 
TCOON,ioos:station:TCOON:006:1,2008-02-02T02:00:00Z,27.8217,-97.2040,0.0,2.3,158.0,2.7,'11111222,11111222,11111222' 
TCOON,ioos:station:TCOON:006:1,2008-02-02T03:00:00Z,27.8217,-97.2040,0.0,2.9,172.0,3.5,'11111222,11111222,11111222' 
TCOON,ioos:station:TCOON:006:1,2008-02-02T04:00:00Z,27.8217,-97.2040,0.0,2.7,184.0,3.6,'11111222,11111222,11111222' 
TCOON,ioos:station:TCOON:006:1,2008-02-02T05:00:00Z,27.8217,-97.2040,0.0,3.2,175.0,3.7,'11111222,11111222,11111222' 
TCOON,ioos:station:TCOON:006:1,2008-02-02T06:00:00Z,27.8217,-97.2040,0.0,2.8,176.0,3.2,'11111222,11111222,11111222' 
TCOON,ioos:station:TCOON:006:1,2008-02-02T07:00:00Z,27.8217,-97.2040,0.0,3.9,165.0,4.7,'11111222,11111222,11111222' 
TCOON,ioos:station:TCOON:006:1,2008-02-02T08:00:00Z,27.8217,-97.2040,0.0,2.1,175.0,2.8,'11111222,11111222,11111222' 
TCOON,ioos:station:TCOON:006:1,2008-02-02T09:00:00Z,27.8217,-97.2040,0.0,2.4,153.0,3.4,'11111222,11111222,11111222' 
TCOON,ioos:station:TCOON:006:1,2008-02-02T10:00:00Z,27.8217,-97.2040,0.0,2.3,132.0,3.1,'11111222,11111222,11111222' 
TCOON,ioos:station:TCOON:006:1,2008-02-02T11:00:00Z,27.8217,-97.2040,0.0,2.1,86.0,2.8,'11111222,11111222,11111222' 
TCOON,ioos:station:TCOON:006:1,2008-02-02T12:00:00Z,27.8217,-97.2040,0.0,1.7,50.0,2.4,'11111222,11111222,11111222' 
TCOON,ioos:station:TCOON:006:1,2008-02-02T13:00:00Z,27.8217,-97.2040,0.0,2.4,61.0,2.9,'11111222,11111222,11111222' 
TCOON,ioos:station:TCOON:006:1,2008-02-02T14:00:00Z,27.8217,-97.2040,0.0,1.7,47.0,2.4,'11111222,11111222,11111222' 
TCOON,ioos:station:TCOON:006:1,2008-02-02T15:00:00Z,27.8217,-97.2040,0.0,1.7,69.0,2.6,'11111222,11111222,11111222' 
TCOON,ioos:station:TCOON:006:1,2008-02-02T16:00:00Z,27.8217,-97.2040,0.0,2.1,89.0,3.2,'11111222,11111222,11111222' 
TCOON,ioos:station:TCOON:006:1,2008-02-02T17:00:00Z,27.8217,-97.2040,0.0,3.5,118.0,5.2,'11111222,11111222,11111222' 
TCOON,ioos:station:TCOON:006:1,2008-02-02T18:00:00Z,27.8217,-97.2040,0.0,4.5,127.0,5.7,'11111222,11111222,11111222' 
TCOON,ioos:station:TCOON:006:1,2008-02-02T19:00:00Z,27.8217,-97.2040,0.0,4.0,112.0,4.9,'11111222,11111222,11111222' 
TCOON,ioos:station:TCOON:006:1,2008-02-02T20:00:00Z,27.8217,-97.2040,0.0,3.0,106.0,4.1,'11111222,11111222,11111222' 
TCOON,ioos:station:TCOON:006:1,2008-02-02T21:00:00Z,27.8217,-97.2040,0.0,3.5,105.0,4.9,'11111222,11111222,11111222' 
TCOON,ioos:station:TCOON:006:1,2008-02-02T22:00:00Z,27.8217,-97.2040,0.0,3.5,106.0,5.9,'11111222,11111222,11111222' 
TCOON,ioos:station:TCOON:006:1,2008-02-02T23:00:00Z,27.8217,-97.2040,0.0,4.3,106.0,6.3,'11111222,11111222,11111222' 
TCOON,ioos:station:TCOON:006:1,2008-02-03T00:00:00Z,27.8217,-97.2040,0.0,3.9,87.0,5.3,'11111222,11111222,11111222' 
TCOON,ioos:station:TCOON:006:1,2008-02-03T01:00:00Z,27.8217,-97.2040,0.0,4.2,88.0,5.7,'11111222,11111222,11111222' 
TCOON,ioos:station:TCOON:006:1,2008-02-03T02:00:00Z,27.8217,-97.2040,0.0,3.4,98.0,4.8,'11111222,11111222,11111222' 
TCOON,ioos:station:TCOON:006:1,2008-02-03T03:00:00Z,27.8217,-97.2040,0.0,2.5,72.0,3.9,'11111222,11111222,11111222' 
TCOON,ioos:station:TCOON:006:1,2008-02-03T04:00:00Z,27.8217,-97.2040,0.0,2.1,70.0,2.7,'11111222,11111222,11111222' 
TCOON,ioos:station:TCOON:006:1,2008-02-03T05:00:00Z,27.8217,-97.2040,0.0,2.4,97.0,4.1,'11111222,11111222,11111222' 
TCOON,ioos:station:TCOON:006:1,2008-02-03T06:00:00Z,27.8217,-97.2040,0.0,2.5,125.0,3.5,'11111222,11111222,11111222' 
TCOON,ioos:station:TCOON:006:1,2008-02-03T07:00:00Z,27.8217,-97.2040,0.0,4.9,144.0,6.1,'11111222,11111222,11111222' 
TCOON,ioos:station:TCOON:006:1,2008-02-03T08:00:00Z,27.8217,-97.2040,0.0,4.3,150.0,5.8,'11111222,11111222,11111222' 
TCOON,ioos:station:TCOON:006:1,2008-02-03T09:00:00Z,27.8217,-97.2040,0.0,4.1,163.0,4.8,'11111222,11111222,11111222' 
TCOON,ioos:station:TCOON:006:1,2008-02-03T10:00:00Z,27.8217,-97.2040,0.0,1.4,236.0,2.1,'11111222,11111222,11111222' 
TCOON,ioos:station:TCOON:006:1,2008-02-03T11:00:00Z,27.8217,-97.2040,0.0,2.9,160.0,3.8,'11111222,11111222,11111222' 
TCOON,ioos:station:TCOON:006:1,2008-02-03T12:00:00Z,27.8217,-97.2040,0.0,2.2,188.0,3.1,'11111222,11111222,11111222' 
TCOON,ioos:station:TCOON:006:1,2008-02-03T13:00:00Z,27.8217,-97.2040,0.0,1.8,184.0,2.6,'11111222,11111222,11111222' 
TCOON,ioos:station:TCOON:006:1,2008-02-03T14:00:00Z,27.8217,-97.2040,0.0,4.0,164.0,5.7,'11111222,11111222,11111222' 
TCOON,ioos:station:TCOON:006:1,2008-02-03T15:00:00Z,27.8217,-97.2040,0.0,3.6,169.0,4.5,'11111222,11111222,11111222' 
TCOON,ioos:station:TCOON:006:1,2008-02-03T16:00:00Z,27.8217,-97.2040,0.0,2.6,183.0,3.8,'11111222,11111222,11111222' 
TCOON,ioos:station:TCOON:006:1,2008-02-03T17:00:00Z,27.8217,-97.2040,0.0,3.1,189.0,3.9,'11111222,11111222,11111222' 
TCOON,ioos:station:TCOON:006:1,2008-02-03T18:00:00Z,27.8217,-97.2040,0.0,1.6,148.0,2.8,'11111222,11111222,11111222' 
TCOON,ioos:station:TCOON:006:1,2008-02-03T19:00:00Z,27.8217,-97.2040,0.0,1.6,141.0,2.2,'11111222,11111222,11111222' 
TCOON,ioos:station:TCOON:006:1,2008-02-03T20:00:00Z,27.8217,-97.2040,0.0,2.9,120.0,6.2,'11111222,11111222,11111222' 
TCOON,ioos:station:TCOON:006:1,2008-02-03T21:00:00Z,27.8217,-97.2040,0.0,4.1,128.0,6.5,'11111222,11111222,11111222' 
TCOON,ioos:station:TCOON:006:1,2008-02-03T22:00:00Z,27.8217,-97.2040,0.0,5.0,129.0,6.9,'11111222,11111222,11111222' 
TCOON,ioos:station:TCOON:006:1,2008-02-03T23:00:00Z,27.8217,-97.2040,0.0,5.6,128.0,8.3,'11111222,11111222,11111222' 
TCOON,ioos:station:TCOON:006:1,2008-02-04T00:00:00Z,27.8217,-97.2040,0.0,5.8,133.0,9.2,'11111222,11111222,11111222' 
TCOON,ioos:station:TCOON:006:1,2008-02-04T01:00:00Z,27.8217,-97.2040,0.0,4.5,133.0,6.5,'11111222,11111222,11111222' 
TCOON,ioos:station:TCOON:006:1,2008-02-04T02:00:00Z,27.8217,-97.2040,0.0,4.5,154.0,6.5,'11111222,11111222,11111222' 
TCOON,ioos:station:TCOON:006:1,2008-02-04T03:00:00Z,27.8217,-97.2040,0.0,6.0,161.0,7.7,'11111222,11111222,11111222' 
TCOON,ioos:station:TCOON:006:1,2008-02-04T04:00:00Z,27.8217,-97.2040,0.0,5.8,162.0,7.1,'11111222,11111222,11111222' 
TCOON,ioos:station:TCOON:006:1,2008-02-04T05:00:00Z,27.8217,-97.2040,0.0,7.8,157.0,10.4,'11111222,11111222,11111222' 
TCOON,ioos:station:TCOON:006:1,2008-02-04T06:00:00Z,27.8217,-97.2040,0.0,7.1,155.0,9.4,'11111222,11111222,11111222' 
TCOON,ioos:station:TCOON:006:1,2008-02-04T07:00:00Z,27.8217,-97.2040,0.0,5.3,153.0,6.9,'11111222,11111222,11111222' 
TCOON,ioos:station:TCOON:006:1,2008-02-04T08:00:00Z,27.8217,-97.2040,0.0,6.6,147.0,9.1,'11111222,11111222,11111222' 
TCOON,ioos:station:TCOON:006:1,2008-02-04T09:00:00Z,27.8217,-97.2040,0.0,3.9,155.0,5.2,'11111222,11111222,11111222' 
TCOON,ioos:station:TCOON:006:1,2008-02-04T10:00:00Z,27.8217,-97.2040,0.0,3.6,152.0,5.1,'11111222,11111222,11111222' 
TCOON,ioos:station:TCOON:006:1,2008-02-04T11:00:00Z,27.8217,-97.2040,0.0,2.8,158.0,3.5,'11111222,11111222,11111222' 
TCOON,ioos:station:TCOON:006:1,2008-02-04T12:00:00Z,27.8217,-97.2040,0.0,4.7,157.0,6.3,'11111222,11111222,11111222' 
TCOON,ioos:station:TCOON:006:1,2008-02-04T13:00:00Z,27.8217,-97.2040,0.0,3.9,135.0,5.3,'11111222,11111222,11111222' 
TCOON,ioos:station:TCOON:006:1,2008-02-04T14:00:00Z,27.8217,-97.2040,0.0,3.2,141.0,5.0,'11111222,11111222,11111222' 
TCOON,ioos:station:TCOON:006:1,2008-02-04T15:00:00Z,27.8217,-97.2040,0.0,5.6,160.0,8.8,'11111222,11111222,11111222' 
TCOON,ioos:station:TCOON:006:1,2008-02-04T16:00:00Z,27.8217,-97.2040,0.0,6.1,156.0,8.2,'11111222,11111222,11111222' 
TCOON,ioos:station:TCOON:006:1,2008-02-04T17:00:00Z,27.8217,-97.2040,0.0,6.3,161.0,8.5,'11111222,11111222,11111222' 
TCOON,ioos:station:TCOON:006:1,2008-02-04T18:00:00Z,27.8217,-97.2040,0.0,8.6,157.0,10.3,'11111222,11111222,11111222' 
TCOON,ioos:station:TCOON:006:1,2008-02-04T19:00:00Z,27.8217,-97.2040,0.0,8.4,153.0,11.0,'11111222,11111222,11111222' 
TCOON,ioos:station:TCOON:006:1,2008-02-04T20:00:00Z,27.8217,-97.2040,0.0,8.3,150.0,12.4,'11111222,11111222,11111222' 
TCOON,ioos:station:TCOON:006:1,2008-02-04T21:00:00Z,27.8217,-97.2040,0.0,9.2,150.0,12.2,'11111222,11111222,11111222' 
TCOON,ioos:station:TCOON:006:1,2008-02-04T22:00:00Z,27.8217,-97.2040,0.0,10.2,147.0,13.1,'11111222,11111222,11111222' 
TCOON,ioos:station:TCOON:006:1,2008-02-04T23:00:00Z,27.8217,-97.2040,0.0,7.6,142.0,10.6,'11111222,11111222,11111222' 
TCOON,ioos:station:TCOON:006:1,2008-02-05T00:00:00Z,27.8217,-97.2040,0.0,4.1,140.0,6.2,'11111222,11111222,11111222' 
TCOON,ioos:station:TCOON:006:1,2008-02-05T01:00:00Z,27.8217,-97.2040,0.0,6.0,145.0,7.2,'11111222,11111222,11111222' 
TCOON,ioos:station:TCOON:006:1,2008-02-05T02:00:00Z,27.8217,-97.2040,0.0,7.5,147.0,9.3,'11111222,11111222,11111222' 
TCOON,ioos:station:TCOON:006:1,2008-02-05T03:00:00Z,27.8217,-97.2040,0.0,5.3,151.0,7.3,'11111222,11111222,11111222' 
TCOON,ioos:station:TCOON:006:1,2008-02-05T04:00:00Z,27.8217,-97.2040,0.0,4.4,154.0,6.2,'11111222,11111222,11111222' 
TCOON,ioos:station:TCOON:006:1,2008-02-05T05:00:00Z,27.8217,-97.2040,0.0,4.3,161.0,5.4,'11111222,11111222,11111222' 
TCOON,ioos:station:TCOON:006:1,2008-02-05T06:00:00Z,27.8217,-97.2040,0.0,5.2,171.0,6.0,'11111222,11111222,11111222' 
TCOON,ioos:station:TCOON:006:1,2008-02-05T07:00:00Z,27.8217,-97.2040,0.0,5.3,156.0,7.1,'11111222,11111222,11111222' 
TCOON,ioos:station:TCOON:006:1,2008-02-05T08:00:00Z,27.8217,-97.2040,0.0,4.5,148.0,5.9,'11111222,11111222,11111222' 
TCOON,ioos:station:TCOON:006:1,2008-02-05T09:00:00Z,27.8217,-97.2040,0.0,3.8,166.0,4.6,'11111222,11111222,11111222' 
TCOON,ioos:station:TCOON:006:1,2008-02-05T10:00:00Z,27.8217,-97.2040,0.0,5.8,164.0,7.5,'11111222,11111222,11111222' 
TCOON,ioos:station:TCOON:006:1,2008-02-05T11:00:00Z,27.8217,-97.2040,0.0,9.0,161.0,10.4,'11111222,11111222,11111222' 
TCOON,ioos:station:TCOON:006:1,2008-02-05T12:00:00Z,27.8217,-97.2040,0.0,9.2,167.0,11.4,'11111222,11111222,11111222' 
TCOON,ioos:station:TCOON:006:1,2008-02-05T13:00:00Z,27.8217,-97.2040,0.0,10.7,171.0,13.4,'11111222,11111222,11111222' 
TCOON,ioos:station:TCOON:006:1,2008-02-05T14:00:00Z,27.8217,-97.2040,0.0,10.7,169.0,13.8,'11111222,11111222,11111222' 
TCOON,ioos:station:TCOON:006:1,2008-02-05T15:00:00Z,27.8217,-97.2040,0.0,9.5,176.0,12.2,'11111222,11111222,11111222' 
TCOON,ioos:station:TCOON:006:1,2008-02-05T16:00:00Z,27.8217,-97.2040,0.0,8.7,170.0,10.7,'11111222,11111222,11111222' 
TCOON,ioos:station:TCOON:006:1,2008-02-05T17:00:00Z,27.8217,-97.2040,0.0,7.0,169.0,8.8,'11111222,11111222,11111222' 
TCOON,ioos:station:TCOON:006:1,2008-02-05T18:00:00Z,27.8217,-97.2040,0.0,8.3,171.0,10.5,'11111222,11111222,11111222' 
TCOON,ioos:station:TCOON:006:1,2008-02-05T19:00:00Z,27.8217,-97.2040,0.0,8.8,161.0,11.4,'11111222,11111222,11111222' 
TCOON,ioos:station:TCOON:006:1,2008-02-05T20:00:00Z,27.8217,-97.2040,0.0,8.7,160.0,12.0,'11111222,11111222,11111222' 
TCOON,ioos:station:TCOON:006:1,2008-02-05T21:00:00Z,27.8217,-97.2040,0.0,9.4,159.0,12.2,'11111222,11111222,11111222' 
TCOON,ioos:station:TCOON:006:1,2008-02-05T22:00:00Z,27.8217,-97.2040,0.0,9.5,160.0,11.7,'11111222,11111222,11111222' 
TCOON,ioos:station:TCOON:006:1,2008-02-05T23:00:00Z,27.8217,-97.2040,0.0,9.2,160.0,11.3,'11111222,11111222,11111222' 
TCOON,ioos:station:TCOON:006:1,2008-02-06T00:00:00Z,27.8217,-97.2040,0.0,8.6,216.0,10.3,'11111222,11111222,11111222' 
TCOON,ioos:station:TCOON:006:1,2008-02-06T01:00:00Z,27.8217,-97.2040,0.0,5.9,313.0,11.3,'11111222,11111222,11111222' 
TCOON,ioos:station:TCOON:006:1,2008-02-06T02:00:00Z,27.8217,-97.2040,0.0,3.8,340.0,6.9,'11111222,11111222,11111222' 
TCOON,ioos:station:TCOON:006:1,2008-02-06T03:00:00Z,27.8217,-97.2040,0.0,1.8,335.0,3.9,'11111222,11111222,11111222' 
TCOON,ioos:station:TCOON:006:1,2008-02-06T04:00:00Z,27.8217,-97.2040,0.0,2.6,340.0,4.0,'11111222,11111222,11111222' 
TCOON,ioos:station:TCOON:006:1,2008-02-06T05:00:00Z,27.8217,-97.2040,0.0,4.5,336.0,6.8,'11111222,11111222,11111222' 
TCOON,ioos:station:TCOON:006:1,2008-02-06T06:00:00Z,27.8217,-97.2040,0.0,4.7,333.0,7.1,'11111222,11111222,11111222' 
TCOON,ioos:station:TCOON:006:1,2008-02-06T07:00:00Z,27.8217,-97.2040,0.0,5.1,327.0,6.9,'11111222,11111222,11111222' 
TCOON,ioos:station:TCOON:006:1,2008-02-06T08:00:00Z,27.8217,-97.2040,0.0,2.9,318.0,5.7,'11111222,11111222,11111222' 
TCOON,ioos:station:TCOON:006:1,2008-02-06T09:00:00Z,27.8217,-97.2040,0.0,4.4,341.0,6.5,'11111222,11111222,11111222' 
TCOON,ioos:station:TCOON:006:1,2008-02-06T10:00:00Z,27.8217,-97.2040,0.0,2.5,347.0,6.6,'11111222,11111222,11111222' 
TCOON,ioos:station:TCOON:006:1,2008-02-06T11:00:00Z,27.8217,-97.2040,0.0,4.7,347.0,8.1,'11111222,11111222,11111222' 
TCOON,ioos:station:TCOON:006:1,2008-02-06T12:00:00Z,27.8217,-97.2040,0.0,4.0,350.0,7.4,'11111222,11111222,11111222' 
TCOON,ioos:station:TCOON:006:1,2008-02-06T13:00:00Z,27.8217,-97.2040,0.0,1.9,3.0,5.9,'11111222,11111222,11111222' 
TCOON,ioos:station:TCOON:006:1,2008-02-06T14:00:00Z,27.8217,-97.2040,0.0,1.7,5.0,7.4,'11111222,11111222,11111222' 
TCOON,ioos:station:TCOON:006:1,2008-02-06T15:00:00Z,27.8217,-97.2040,0.0,3.9,350.0,7.3,'11111222,11111222,11111222' 
TCOON,ioos:station:TCOON:006:1,2008-02-06T16:00:00Z,27.8217,-97.2040,0.0,2.5,352.0,5.6,'11111222,11111222,11111222' 
TCOON,ioos:station:TCOON:006:1,2008-02-06T17:00:00Z,27.8217,-97.2040,0.0,1.9,24.0,5.5,'11111222,11111222,11111222' 
TCOON,ioos:station:TCOON:006:1,2008-02-06T18:00:00Z,27.8217,-97.2040,0.0,1.3,158.0,3.3,'11111222,11111222,11111222' 
TCOON,ioos:station:TCOON:006:1,2008-02-06T19:00:00Z,27.8217,-97.2040,0.0,2.7,138.0,4.0,'11111222,11111222,11111222' 
TCOON,ioos:station:TCOON:006:1,2008-02-06T20:00:00Z,27.8217,-97.2040,0.0,4.3,132.0,5.9,'11111222,11111222,11111222' 
TCOON,ioos:station:TCOON:006:1,2008-02-06T21:00:00Z,27.8217,-97.2040,0.0,4.5,124.0,6.1,'11111222,11111222,11111222' 
TCOON,ioos:station:TCOON:006:1,2008-02-06T22:00:00Z,27.8217,-97.2040,0.0,3.0,100.0,4.9,'11111222,11111222,11111222' 
TCOON,ioos:station:TCOON:006:1,2008-02-06T23:00:00Z,27.8217,-97.2040,0.0,3.8,86.0,5.3,'11111222,11111222,11111222' 
TCOON,ioos:station:TCOON:006:1,2008-02-07T00:00:00Z,27.8217,-97.2040,0.0,1.7,98.0,3.6,'11111222,11111222,11111222' 
TCOON,ioos:station:TCOON:006:1,2008-02-07T01:00:00Z,27.8217,-97.2040,0.0,2.0,96.0,3.2,'11111222,11111222,11111222' 
TCOON,ioos:station:TCOON:006:1,2008-02-07T02:00:00Z,27.8217,-97.2040,0.0,3.0,94.0,4.3,'11111222,11111222,11111222' 
TCOON,ioos:station:TCOON:006:1,2008-02-07T03:00:00Z,27.8217,-97.2040,0.0,2.9,100.0,4.8,'11111222,11111222,11111222' 
TCOON,ioos:station:TCOON:006:1,2008-02-07T04:00:00Z,27.8217,-97.2040,0.0,3.9,109.0,5.6,'11111222,11111222,11111222' 
TCOON,ioos:station:TCOON:006:1,2008-02-07T05:00:00Z,27.8217,-97.2040,0.0,4.1,122.0,6.1,'11111222,11111222,11111222' 
TCOON,ioos:station:TCOON:006:1,2008-02-07T06:00:00Z,27.8217,-97.2040,0.0,3.8,135.0,5.1,'11111222,11111222,11111222' 
TCOON,ioos:station:TCOON:006:1,2008-02-07T07:00:00Z,27.8217,-97.2040,0.0,3.0,137.0,3.8,'11111222,11111222,11111222' 
TCOON,ioos:station:TCOON:006:1,2008-02-07T08:00:00Z,27.8217,-97.2040,0.0,3.4,146.0,4.6,'11111222,11111222,11111222' 
TCOON,ioos:station:TCOON:006:1,2008-02-07T09:00:00Z,27.8217,-97.2040,0.0,3.3,152.0,5.1,'11111222,11111222,11111222' 
TCOON,ioos:station:TCOON:006:1,2008-02-07T10:00:00Z,27.8217,-97.2040,0.0,3.7,166.0,4.5,'11111222,11111222,11111222' 
TCOON,ioos:station:TCOON:006:1,2008-02-07T11:00:00Z,27.8217,-97.2040,0.0,3.4,169.0,4.5,'11111222,11111222,11111222' 
TCOON,ioos:station:TCOON:006:1,2008-02-07T12:00:00Z,27.8217,-97.2040,0.0,3.0,232.0,3.2,'11111222,11111222,11111222' 
TCOON,ioos:station:TCOON:006:1,2008-02-07T13:00:00Z,27.8217,-97.2040,0.0,2.2,322.0,3.6,'11111222,11111222,11111222' 
TCOON,ioos:station:TCOON:006:1,2008-02-07T14:00:00Z,27.8217,-97.2040,0.0,1.4,240.0,1.5,'11111222,11111222,11111222' 
TCOON,ioos:station:TCOON:006:1,2008-02-07T15:00:00Z,27.8217,-97.2040,0.0,2.1,262.0,3.0,'11111222,11111222,11111222' 
TCOON,ioos:station:TCOON:006:1,2008-02-07T16:00:00Z,27.8217,-97.2040,0.0,3.0,243.0,3.3,'11111222,11111222,11111222' 
TCOON,ioos:station:TCOON:006:1,2008-02-07T17:00:00Z,27.8217,-97.2040,0.0,3.6,190.0,4.7,'11111222,11111222,11111222' 
TCOON,ioos:station:TCOON:006:1,2008-02-07T18:00:00Z,27.8217,-97.2040,0.0,6.1,186.0,7.1,'11111222,11111222,11111222' 
TCOON,ioos:station:TCOON:006:1,2008-02-07T19:00:00Z,27.8217,-97.2040,0.0,3.4,151.0,4.5,'11111222,11111222,11111222' 
TCOON,ioos:station:TCOON:006:1,2008-02-07T20:00:00Z,27.8217,-97.2040,0.0,4.0,155.0,5.3,'11111222,11111222,11111222' 
TCOON,ioos:station:TCOON:006:1,2008-02-07T21:00:00Z,27.8217,-97.2040,0.0,3.9,135.0,5.2,'11111222,11111222,11111222' 
TCOON,ioos:station:TCOON:006:1,2008-02-07T22:00:00Z,27.8217,-97.2040,0.0,4.2,158.0,4.9,'11111222,11111222,11111222' 
TCOON,ioos:station:TCOON:006:1,2008-02-07T23:00:00Z,27.8217,-97.2040,0.0,4.3,169.0,5.0,'11111222,11111222,11111222' 
TCOON,ioos:station:TCOON:006:1,2008-02-08T00:00:00Z,27.8217,-97.2040,0.0,4.7,172.0,5.5,'11111222,11111222,11111222' 
TCOON,ioos:station:TCOON:006:1,2008-02-08T01:00:00Z,27.8217,-97.2040,0.0,0.6,187.0,1.5,'11111222,11111222,11111222' 
TCOON,ioos:station:TCOON:006:1,2008-02-08T02:00:00Z,27.8217,-97.2040,0.0,0.5,186.0,1.6,'11111222,11111222,11111222' 
TCOON,ioos:station:TCOON:006:1,2008-02-08T03:00:00Z,27.8217,-97.2040,0.0,0.5,239.0,1.0,'11111222,11111222,11111222' 
TCOON,ioos:station:TCOON:006:1,2008-02-08T04:00:00Z,27.8217,-97.2040,0.0,0.6,207.0,0.7,'11111222,11111222,11111222' 
TCOON,ioos:station:TCOON:006:1,2008-02-08T05:00:00Z,27.8217,-97.2040,0.0,3.0,341.0,3.8,'11111222,11111222,11111222' 
TCOON,ioos:station:TCOON:006:1,2008-02-08T06:00:00Z,27.8217,-97.2040,0.0,0.8,7.0,1.9,'11111222,11111222,11111222' 
TCOON,ioos:station:TCOON:006:1,2008-02-08T07:00:00Z,27.8217,-97.2040,0.0,1.2,11.0,2.0,'11111222,11111222,11111222' 
TCOON,ioos:station:TCOON:006:1,2008-02-08T08:00:00Z,27.8217,-97.2040,0.0,1.0,45.0,1.5,'11111222,11111222,11111222' 
TCOON,ioos:station:TCOON:006:1,2008-02-08T09:00:00Z,27.8217,-97.2040,0.0,1.7,63.0,2.3,'11111222,11111222,11111222' 
TCOON,ioos:station:TCOON:006:1,2008-02-08T10:00:00Z,27.8217,-97.2040,0.0,1.7,92.0,2.6,'11111222,11111222,11111222' 
TCOON,ioos:station:TCOON:006:1,2008-02-08T11:00:00Z,27.8217,-97.2040,0.0,1.9,92.0,2.3,'11111222,11111222,11111222' 
TCOON,ioos:station:TCOON:006:1,2008-02-08T12:00:00Z,27.8217,-97.2040,0.0,2.1,99.0,3.6,'11111222,11111222,11111222' 
TCOON,ioos:station:TCOON:006:1,2008-02-08T13:00:00Z,27.8217,-97.2040,0.0,2.6,138.0,3.0,'11111222,11111222,11111222' 
TCOON,ioos:station:TCOON:006:1,2008-02-08T14:00:00Z,27.8217,-97.2040,0.0,2.8,159.0,3.4,'11111222,11111222,11111222' 
TCOON,ioos:station:TCOON:006:1,2008-02-08T15:00:00Z,27.8217,-97.2040,0.0,5.6,172.0,7.0,'11111222,11111222,11111222' 
TCOON,ioos:station:TCOON:006:1,2008-02-08T16:00:00Z,27.8217,-97.2040,0.0,5.5,168.0,6.7,'11111222,11111222,11111222' 
TCOON,ioos:station:TCOON:006:1,2008-02-08T17:00:00Z,27.8217,-97.2040,0.0,5.5,163.0,6.8,'11111222,11111222,11111222' 
TCOON,ioos:station:TCOON:006:1,2008-02-08T18:00:00Z,27.8217,-97.2040,0.0,4.9,155.0,7.5,'11111222,11111222,11111222' 
TCOON,ioos:station:TCOON:006:1,2008-02-08T19:00:00Z,27.8217,-97.2040,0.0,4.9,148.0,6.6,'11111222,11111222,11111222' 
TCOON,ioos:station:TCOON:006:1,2008-02-08T20:00:00Z,27.8217,-97.2040,0.0,5.2,147.0,6.8,'11111222,11111222,11111222' 
TCOON,ioos:station:TCOON:006:1,2008-02-08T21:00:00Z,27.8217,-97.2040,0.0,5.6,147.0,7.2,'11111222,11111222,11111222' 
TCOON,ioos:station:TCOON:006:1,2008-02-08T22:00:00Z,27.8217,-97.2040,0.0,6.2,145.0,8.5,'11111222,11111222,11111222' 
TCOON,ioos:station:TCOON:006:1,2008-02-08T23:00:00Z,27.8217,-97.2040,0.0,5.2,151.0,7.0,'11111222,11111222,11111222' 
TCOON,ioos:station:TCOON:006:1,2008-02-09T00:00:00Z,27.8217,-97.2040,0.0,5.0,156.0,6.5,'11111222,11111222,11111222' 
TCOON,ioos:station:TCOON:006:1,2008-02-09T01:00:00Z,27.8217,-97.2040,0.0,7.2,158.0,8.7,'11111222,11111222,11111222' 
TCOON,ioos:station:TCOON:006:1,2008-02-09T02:00:00Z,27.8217,-97.2040,0.0,5.8,163.0,8.2,'11111222,11111222,11111222' 
TCOON,ioos:station:TCOON:006:1,2008-02-09T03:00:00Z,27.8217,-97.2040,0.0,5.1,155.0,7.7,'11111222,11111222,11111222' 
TCOON,ioos:station:TCOON:006:1,2008-02-09T04:00:00Z,27.8217,-97.2040,0.0,5.2,157.0,6.8,'11111222,11111222,11111222' 
TCOON,ioos:station:TCOON:006:1,2008-02-09T05:00:00Z,27.8217,-97.2040,0.0,3.7,161.0,4.4,'11111222,11111222,11111222' 
TCOON,ioos:station:TCOON:006:1,2008-02-09T06:00:00Z,27.8217,-97.2040,0.0,2.7,164.0,3.2,'11111222,11111222,11111222' 
TCOON,ioos:station:TCOON:006:1,2008-02-09T07:00:00Z,27.8217,-97.2040,0.0,1.1,136.0,2.1,'11111222,11111222,11111222' 
TCOON,ioos:station:TCOON:006:1,2008-02-09T08:00:00Z,27.8217,-97.2040,0.0,1.8,125.0,3.7,'11111222,11111222,11111222' 
TCOON,ioos:station:TCOON:006:1,2008-02-09T09:00:00Z,27.8217,-97.2040,0.0,2.8,142.0,3.5,'11111222,11111222,11111222' 
TCOON,ioos:station:TCOON:006:1,2008-02-09T10:00:00Z,27.8217,-97.2040,0.0,1.5,144.0,2.5,'11111222,11111222,11111222' 
TCOON,ioos:station:TCOON:006:1,2008-02-09T11:00:00Z,27.8217,-97.2040,0.0,1.3,97.0,2.8,'11111222,11111222,11111222' 
TCOON,ioos:station:TCOON:006:1,2008-02-09T12:00:00Z,27.8217,-97.2040,0.0,1.9,74.0,2.8,'11111222,11111222,11111222' 
TCOON,ioos:station:TCOON:006:1,2008-02-09T13:00:00Z,27.8217,-97.2040,0.0,1.2,9.0,2.1,'11111222,11111222,11111222' 
TCOON,ioos:station:TCOON:006:1,2008-02-09T14:00:00Z,27.8217,-97.2040,0.0,1.8,40.0,2.8,'11111222,11111222,11111222' 
TCOON,ioos:station:TCOON:006:1,2008-02-09T15:00:00Z,27.8217,-97.2040,0.0,1.6,39.0,2.3,'11111222,11111222,11111222' 